Current Version              Previous Version:    01  02  03  04  05  06  07  08  09  10  11  12  13  14  15  16  17  18  19  20  21  22  23  24  25  26  27  28  29  30  
   31  32  33  34  35  36  37  38  39  40  41  42  43  44  45  46  47  48  49  50  51  52  53  54  55  56  57  58  59  60  

[Printable]
391
ASUS44 KFWD 290315
RWRTX
NORTH TEXAS HOURLY WEATHER ROUNDUP
NATIONAL WEATHER SERVICE FORT WORTH TX
900 PM CST WED JAN 28 2015

NOTE: "FAIR" INDICATES FEW OR NO CLOUDS BELOW 12,000 FEET WITH NO
SIGNIFICANT WEATHER AND/OR OBSTRUCTIONS TO VISIBILITY.

TXZ118-119-290400-
DALLAS/FORT WORTH METROPLEX

CITY           SKY/WX    TMP DP  RH WIND       PRES   REMARKS
DFW AIRPORT    CLEAR     69  41  36 S22       29.98F
DALLAS LOVE    CLEAR     72  40  31 S14G23    29.99F
FTW MEACHAM    CLEAR     70  41  34 S14       29.98S
DAL-EXECUTIVE  CLEAR     71  39  31 S10G18    30.00S
FTW-ALLIANCE   PTCLDY    65  42  43 S9        29.98R
FTW-SPINKS     CLEAR     70  38  31 S15G22    30.02S
ARLINGTON      CLEAR     68  40  35 S13       30.00S
GRAND PRAIRIE  CLEAR     69  43  39 S13       30.02S
ADDISON        CLEAR     72  37  28 S14G22    30.00S
MESQUITE       CLEAR     65  41  41 S12       30.02R
LANCASTER      CLEAR     64  40  41 S8        30.03R
$$

TXZ091>094-102>105-117-120-121-131>134-290400-
NORTH CENTRAL TEXAS

CITY           SKY/WX    TMP DP  RH WIND       PRES   REMARKS
SHRMAN/DENISON CLEAR     67  47  48 S16G23    29.97S
GAINESVILLE    CLEAR     59  41  51 S6        29.99R
BOWIE          CLEAR     63  45  51 S7        29.98R
BRIDGEPORT     CLEAR     69  44  41 S13       29.99R
DECATUR        CLEAR     67  39  35 S9        29.99R
DENTON         CLEAR     67  43  41 S13       29.98R
MCKINNEY       CLEAR     70  41  34 S18       29.98S
GREENVILLE     CLEAR     64  41  42 S12       30.01S
ROCKWALL       CLEAR     65  43  44 S12       30.00S
TERRELL        CLEAR     68  43  40 S12       30.03R
WAXAHACHIE     CLEAR     65  44  45 S12       30.04R
CLEBURNE       CLEAR     64  41  42 S13       30.04S
GRANBURY       CLEAR     67  41  38 S9        30.02S
$$

TXZ083>090-098>101-113>116-127>130-139>142-154-155-290400-
WESTERN NORTH TEXAS

CITY           SKY/WX    TMP DP  RH WIND       PRES   REMARKS
WICHITA FALLS  PTCLDY    64  46  52 W12       29.97R
WF-KICKAPOO    CLEAR     57  38  49 NW12G17   29.98R
VERNON         CLEAR     62  29  28 CALM      30.01R
ABILENE        CLEAR     65  44  46 SW10      30.04R
ABILENE-DYESS  CLEAR     64  46  52 S8        30.03R
BRECKENRIDGE   CLEAR     68  42  38 S12       30.00R
GRAHAM         CLEAR     63  47  54 CALM      29.98R
MINERAL WELLS  CLEAR     66  40  38 S8        29.98R
STEPHENVILLE   CLEAR     64  38  37 S6        30.06S
COMANCHE       CLEAR     67  39  35 S16G22    30.04S
BROWNWOOD      PTCLDY    63  37  39 S7        30.05R
COLEMAN        PTCLDY    64  43  46 SW10      30.06R
BRADY          CLEAR     64  37  36 S9        30.09R
$$

TXZ143>147-156>162-174-175-290400-
CENTRAL TEXAS

CITY           SKY/WX    TMP DP  RH WIND       PRES   REMARKS
WACO           CLEAR     62  42  47 S12       30.06R
WACO-TSTC      CLEAR     63  43  48 S8        30.07
WACO-MCGREGOR  CLEAR     64  39  39 S10       30.08R
HILLSBORO      CLEAR     64  42  46 S13       30.05R
CORSICANA      CLEAR     67  40  37 S10       30.07R
MEXIA          CLEAR     64  42  44 S12       30.06S
HEARNE         CLEAR     61  46  58 SE8       30.11R
CAMERON        CLEAR     65  43  45 S9G17     30.09R
TEMPLE         CLEAR     61  39  44 S12       30.07R
KILLEEN        CLEAR     62  38  42 S9        30.09R
FORT HOOD      CLEAR     63  38  39 S6        30.08R
GATESVILLE     CLEAR     66  37  34 S9        30.10R
HAMILTON       CLEAR     65  37  34 S12       30.07S
LAMPASAS       CLEAR     63  39  41 CALM      30.09R
$$

TXZ095>097-106>112-122>126-135>138-148>153-164>167-290400-
EAST TEXAS

CITY           SKY/WX    TMP DP  RH WIND       PRES   REMARKS
PARIS          CLEAR     63  43  48 S8        30.00S
SULPHUR SPRNGS CLEAR     67  41  38 S13       30.03S
MOUNT PLEASANT CLEAR     65  43  45 S8        30.05R
GILMER         CLEAR     65  44  46 S10       30.04F
MINEOLA        CLEAR     68  43  40 S9        30.04R
TYLER          CLEAR     66  46  48 S13       30.05S
LONGVIEW       CLEAR     62  46  55 S10       30.05F
MARSHALL       CLEAR     68  47  46 S9        30.09S
ATHENS         CLEAR     64  41  42 S7        30.05R
PALESTINE      CLEAR     67  42  40 S9        30.07F
JACKSONVILLE   CLEAR     65  47  53 CALM      30.09F
HENDERSON      CLEAR     63  46  54 S8        30.08F
NACOGDOCHES    CLEAR     61  45  55 S8        30.12S
LUFKIN         CLEAR     60  47  61 SE6       30.13R
$$

SUPPLEMENTAL OBSERVATIONS (CENTRAL)

CITY           SKY/WX    TMP DP  RH WIND       PRES   REMARKS
LAKE TEXOMA      N/A     70  43  37 S12         N/A
CADDO GRASSLND   N/A     63  41  45 S8          N/A
PAT MAYSE LAKE   N/A     64  41  42 SE15        N/A
GREENVILLE       N/A     66  39  37 S14         N/A
CEDAR HILL       N/A     70  39  32 S12G23      N/A
ATHENS           N/A     68  41  37 S10         N/A
LAKE LIMESTONE   N/A     64  41  42 S7          N/A
MCGREGOR         N/A     59  43  55 S8          N/A
TEMPLE           N/A     63  39  42 S7          N/A
$$

SUPPLEMENTAL OBSERVATIONS (WEST)

CITY           SKY/WX    TMP DP  RH WIND       PRES   REMARKS
MILLERS CREEK    N/A     55  45  67 SW9         N/A
LBJ GRASSLAND    N/A     68  41  37 S7          N/A
GRANBURY         N/A     66  37  34 S10         N/A
COMANCHE         N/A     68  37  32 S15         N/A
HAMBY            N/A     57  45  62 S7          N/A
IVIE RESERVOIR   N/A     64  39  39 S7          N/A
COLORADO BEND    N/A     63  34  34 S6          N/A
$$

SUPPLEMENTAL OBSERVATIONS (EAST)

CITY           SKY/WX    TMP DP  RH WIND       PRES   REMARKS
CLARKSVILLE      N/A     64  43  45 S12         N/A
TEXARKANA        N/A     64  41  42 S6          N/A
CADDO LAKE       N/A     63  43  48 S3          N/A
GILMER           N/A     66  43  42 S9          N/A
HENDERSON        N/A     64  45  48 S12         N/A
LUFKIN           N/A     61  46  59 MISG        N/A
N SABINE NF      N/A     55  43  62 MISG        N/A
S SABINE NF      N/A     55  37  50 S2          N/A
$$

SUPPLEMENTAL OBSERVATIONS ARE A COLLECTION OF AUTOMATED INSTRUMENTS
THAT ARE MAINTAINED BY A VARIETY OF FEDERAL AND STATE AGENCIES.
CERTAIN ELEMENTS...SUCH AS HUMIDITY VALUES AND SUSTAINED WIND
SPEEDS...MAY BE APPROXIMATED.